Terminal Aerodrome Forecast
Issued by NWS

Home | Current Version | Previous Version | Text Only | Print | Product List | Glossary On
Versions: 1 2 3 4 5 6 7 8 9 10 11 12 13 14 15 16 17 18 19 20 21 22 23 24 25 26 27 28 29 30 31 32 33 34 35 36 37 38 39 40 41 42 43 44 45 46 47 48 49 50
000
FTUS42 KMFL 291138
TAFMIA
TAF
KMIA 291138Z 2912/3012 09007KT P6SM VCSH BKN035
     FM291400 09010KT P6SM SCT025 SCT070
     FM291600 09012KT P6SM SHRA VCTS SCT025CB BKN070
     FM292100 09011KT P6SM SCT050=

USA.gov is the U.S. government's official web portal to all federal, state and local government web resources and services.